FW5682 Weather Reports


time (UTC)temp
C
wind
direction
speed
KPH
gust
KPH
rain 1hr
cm
rain 24hr
cm
rain mn
cm
humidity
%
barometer
mb
20260507171232 13 149 9.7 16.1 0.00 0.00 0.00 69 1012.0
20260507170732 13 144 4.8 11.3 0.00 0.00 0.00 70 1012.0
20260507170232 13 137 6.4 11.3 0.00 0.00 0.00 72 1011.9
20260507165731 12 124 9.7 11.3 0.00 0.00 0.00 73 1011.8
20260507165231 12 140 6.4 11.3 0.00 0.00 0.00 74 1012.0
20260507164731 12 144 6.4 11.3 0.00 0.00 0.00 74 1012.0
20260507164231 11 152 4.8 8.0 0.00 0.00 0.00 75 1012.1
20260507163731 11 152 4.8 6.4 0.00 0.00 0.00 75 1012.1
20260507163452 11 152 3.2 8.0 0.00 0.00 0.00 75 1012.2
20260507162730 11 152 3.2 8.0 0.00 0.00 0.00 75 1012.2
20260507162231 11 152 3.2 6.4 0.00 0.00 0.00 75 1012.2
20260507161731 12 154 3.2 11.3 0.00 0.00 0.00 75 1012.2
20260507161456 12 152 4.8 11.3 0.00 0.00 0.00 74 1012.2
20260507160729 12 155 4.8 9.7 0.00 0.00 0.00 75 1012.2
20260507160230 12 158 4.8 9.7 0.00 0.00 0.00 74 1012.3
20260507155730 12 159 4.8 9.7 0.00 0.00 0.00 74 1012.3
20260507155230 12 159 4.8 8.0 0.00 0.00 0.00 74 1012.4
20260507154731 12 161 3.2 6.4 0.00 0.00 0.00 74 1012.3
20260507154230 12 161 3.2 8.0 0.00 0.00 0.00 74 1012.4
20260507153729 12 161 3.2 8.0 0.00 0.00 0.00 73 1012.4
20260507153230 12 161 4.8 8.0 0.00 0.00 0.00 73 1012.4
20260507152729 12 161 3.2 9.7 0.00 0.00 0.00 72 1012.4
20260507152229 12 158 8.0 11.3 0.00 0.00 0.00 71 1012.5
20260507151729 13 147 6.4 11.3 0.00 0.00 0.00 71 1012.6
20260507151229 13 169 3.2 9.7 0.00 0.00 0.00 71 1012.4
20260507150229 13 152 4.8 11.3 0.00 0.00 0.00 69 1012.5
20260507145728 13 127 6.4 11.3 0.00 0.00 0.00 69 1012.5
20260507145449 13 188 8.0 14.5 0.00 0.00 0.00 70 1012.6
20260507144728 13 186 6.4 14.5 0.00 0.00 0.00 71 1012.5
20260507144228 13 195 6.4 16.1 0.00 0.00 0.00 70 1012.6
20260507143728 13 189 9.7 16.1 0.00 0.00 0.00 70 1012.7
20260507143228 13 178 3.2 11.3 0.00 0.00 0.00 71 1012.6
20260507142728 13 154 8.0 17.7 0.00 0.00 0.00 70 1012.7
20260507142228 13 144 6.4 17.7 0.00 0.00 0.00 71 1012.8
20260507141733 13 161 8.0 17.7 0.00 0.00 0.00 70 1012.8
20260507141231 12 173 6.4 16.1 0.00 0.00 0.00 72 1012.9
20260507140733 12 140 6.4 16.1 0.00 0.00 0.00 72 1012.9
20260507140227 12 137 8.0 11.3 0.00 0.00 0.00 73 1013.0
20260507135727 12 196 8.0 11.3 0.00 0.00 0.00 75 1013.1
20260507135227 12 171 6.4 11.3 0.00 0.00 0.00 76 1013.0
20260507134729 12 165 3.2 11.3 0.00 0.00 0.00 76 1013.1
20260507134227 11 164 8.0 14.5 0.00 0.00 0.00 76 1013.1
20260507133726 11 141 9.7 14.5 0.00 0.00 0.00 77 1013.1
20260507133227 11 188 6.4 16.1 0.00 0.00 0.00 76 1013.2
20260507132726 11 169 4.8 16.1 0.00 0.00 0.00 76 1013.2
20260507132226 11 171 8.0 16.1 0.00 0.00 0.00 76 1013.2
20260507131727 11 179 6.4 16.1 0.00 0.00 0.00 77 1013.2
20260507131228 11 159 8.0 16.1 0.00 0.00 0.00 77 1013.3
20260507130951 11 176 6.4 14.5 0.00 0.00 0.00 77 1013.2
20260507130226 11 199 8.0 14.5 0.00 0.00 0.00 77 1013.2
20260507125726 11 180 9.7 14.5 0.00 0.00 0.00 79 1013.4
20260507125227 11 164 4.8 14.5 0.00 0.00 0.00 79 1013.2
20260507124726 11 189 4.8 14.5 0.00 0.00 0.00 79 1013.2
20260507124226 10 162 8.0 11.3 0.00 0.00 0.00 79 1013.3
20260507123726 10 161 6.4 11.3 0.00 0.00 0.00 80 1013.3
20260507123226 10 185 6.4 8.0 0.00 0.00 0.00 81 1013.3
20260507122952 10 180 4.8 9.7 0.00 0.00 0.00 81 1013.3
20260507122225 10 179 3.2 16.1 0.00 0.00 0.00 80 1013.4
20260507121725 10 183 6.4 16.1 0.00 0.00 0.00 80 1013.4
20260507121224 10 165 9.7 16.1 0.00 0.00 0.00 80 1013.5
20260507120724 10 178 8.0 17.7 0.00 0.00 0.00 80 1013.5
20260507120227 10 155 6.4 20.9 0.00 0.00 0.00 80 1013.6
20260507115726 10 214 9.7 20.9 0.00 0.00 0.00 80 1013.5
20260507115224 10 188 4.8 14.5 0.00 0.00 0.00 80 1013.6
20260507114724 10 157 4.8 14.5 0.00 0.00 0.00 80 1013.5
20260507114224 10 147 9.7 14.5 0.00 0.00 0.00 79 1013.5
20260507113724 10 193 6.4 16.1 0.00 0.00 0.00 79 1013.5
20260507113446 10 155 9.7 16.1 0.00 0.00 0.00 79 1013.6
20260507112723 10 199 9.7 19.3 0.00 0.00 0.00 80 1013.6
20260507112222 10 199 8.0 19.3 0.00 0.00 0.00 79 1013.6
20260507111723 10 151 11.3 19.3 0.00 0.00 0.00 79 1013.6
20260507111224 10 193 8.0 19.3 0.00 0.00 0.00 79 1013.6
20260507110723 11 202 8.0 16.1 0.00 0.00 0.00 79 1013.7
20260507110236 11 161 8.0 19.3 0.00 0.00 0.00 79 1013.7
20260507105723 11 182 8.0 19.3 0.00 0.00 0.00 79 1013.7
20260507105223 11 197 6.4 17.7 0.00 0.00 0.00 80 1013.8
20260507104722 11 190 8.0 17.7 0.00 0.00 0.00 81 1013.7
20260507104444 10 171 6.4 19.3 0.00 0.00 0.00 81 1013.7
20260507103944 10 152 9.7 19.3 0.00 0.00 0.00 82 1013.7
20260507103220 10 152 9.7 17.7 0.00 0.00 0.00 82 1013.8
20260507102720 10 148 8.0 16.1 0.00 0.00 0.00 83 1013.8
20260507102220 10 164 9.7 16.1 0.00 0.00 0.00 84 1013.7
20260507101720 10 179 8.0 14.5 0.00 0.00 0.00 84 1013.7
20260507101219 9 182 8.0 14.5 0.00 0.00 0.00 85 1013.7
20260507100719 9 180 6.4 14.5 0.00 0.00 0.00 85 1013.7
20260507100219 9 183 6.4 14.5 0.00 0.00 0.00 86 1013.7
20260507095718 9 151 8.0 14.5 0.00 0.00 0.00 86 1013.8
20260507095218 8 168 4.8 11.3 0.00 0.00 0.00 86 1013.8
20260507094718 8 168 6.4 11.3 0.00 0.00 0.00 86 1013.9
20260507094219 8 175 4.8 9.7 0.00 0.00 0.00 87 1013.7
20260507093718 8 188 6.4 8.0 0.00 0.00 0.00 87 1013.8
20260507093218 8 189 4.8 9.7 0.00 0.00 0.00 88 1013.9
20260507092942 8 193 6.4 9.7 0.00 0.00 0.00 88 1013.7
20260507092442 8 158 4.8 11.3 0.00 0.00 0.00 88 1013.7
20260507091718 7 155 4.8 11.3 0.00 0.00 0.00 89 1013.7
20260507091218 7 155 6.4 11.3 0.00 0.00 0.00 89 1013.7
20260507090718 7 186 6.4 11.3 0.00 0.00 0.00 89 1013.7
20260507090218 7 159 8.0 9.7 0.00 0.00 0.00 89 1013.7
20260507085717 7 161 4.8 6.4 0.00 0.00 0.00 89 1013.7
20260507085217 7 159 3.2 8.0 0.00 0.00 0.00 89 1013.8
20260507084941 7 159 6.4 8.0 0.00 0.00 0.00 89 1013.7
20260507084217 7 161 4.8 8.0 0.00 0.00 0.00 89 1013.7
20260507083717 7 154 4.8 9.7 0.00 0.00 0.00 89 1013.8
20260507083217 6 152 4.8 9.7 0.00 0.00 0.00 89 1013.8
20260507082714 6 152 4.8 9.7 0.00 0.00 0.00 89 1013.6
20260507082214 6 152 4.8 9.7 0.00 0.00 0.00 89 1013.7
20260507081937 6 154 3.2 9.7 0.00 0.00 0.00 89 1013.7
20260507081215 6 158 4.8 9.7 0.00 0.00 0.00 89 1013.7
20260507080712 6 158 4.8 9.7 0.00 0.00 0.00 89 1013.7
20260507080212 6 159 8.0 9.7 0.00 0.00 0.00 89 1013.7
20260507075713 6 147 6.4 9.7 0.00 0.00 0.00 89 1013.7
20260507075212 6 147 6.4 11.3 0.00 0.00 0.00 89 1013.7
20260507074710 6 149 3.2 11.3 0.00 0.00 0.00 89 1013.7
20260507074208 6 155 6.4 14.5 0.00 0.00 0.00 90 1013.7
20260507073707 6 147 6.4 14.5 0.00 0.00 0.00 90 1013.7
20260507073213 6 141 6.4 9.7 0.00 0.00 0.00 90 1013.6
20260507072709 6 121 6.4 9.7 0.00 0.00 0.00 90 1013.7
20260507072207 6 161 6.4 9.7 0.00 0.00 0.00 90 1013.7
20260507071706 6 155 4.8 6.4 0.00 0.00 0.00 91 1013.7
20260507071206 6 154 3.2 9.7 0.00 0.00 0.00 91 1013.7
20260507070706 5 154 4.8 9.7 0.00 0.00 0.00 91 1013.6
20260507070205 5 159 4.8 8.0 0.00 0.00 0.00 91 1013.6
20260507065706 5 159 6.4 9.7 0.00 0.00 0.00 92 1013.5
20260507065205 5 161 4.8 9.7 0.00 0.00 0.00 92 1013.6
20260507064705 5 162 6.4 8.0 0.00 0.00 0.00 92 1013.5
20260507064205 5 159 6.4 8.0 0.00 0.00 0.00 92 1013.5
20260507063706 5 157 4.8 9.7 0.00 0.00 0.00 92 1013.5
20260507063207 5 158 4.8 9.7 0.00 0.00 0.00 93 1013.5
20260507062705 4 157 4.8 8.0 0.00 0.00 0.00 93 1013.5
20260507062206 4 158 4.8 8.0 0.00 0.00 0.00 93 1013.5
20260507061705 4 158 6.4 9.7 0.00 0.00 0.00 93 1013.4
20260507061205 4 158 6.4 9.7 0.00 0.00 0.00 93 1013.5
20260507060706 4 117 3.2 4.8 0.00 0.00 0.00 93 1013.3
20260507060205 3 116 3.2 8.0 0.00 0.00 0.00 93 1013.3
20260507055705 3 116 3.2 8.0 0.00 0.00 0.00 93 1013.3
20260507055205 3 114 6.4 8.0 0.00 0.00 0.00 93 1013.3
20260507054706 3 111 3.2 6.4 0.00 0.00 0.00 93 1013.3
20260507054205 3 111 3.2 6.4 0.00 0.00 0.00 93 1013.3
20260507053705 3 111 4.8 6.4 0.00 0.00 0.00 93 1013.3
20260507053205 3 110 3.2 6.4 0.00 0.00 0.00 93 1013.2
20260507052705 3 110 3.2 6.4 0.00 0.00 0.00 93 1013.2
20260507052209 3 109 3.2 6.4 0.00 0.00 0.00 93 1013.1
20260507051707 3 109 1.6 6.4 0.00 0.00 0.00 94 1013.1
20260507051205 3 109 3.2 4.8 0.00 0.00 0.00 94 1013.2
20260507050709 3 107 3.2 4.8 0.00 0.00 0.00 94 1013.1
20260507050205 3 107 3.2 4.8 0.00 0.00 0.00 94 1013.2
20260507045704 3 107 1.6 4.8 0.00 0.00 0.00 94 1013.2
20260507045205 3 107 3.2 4.8 0.00 0.00 0.00 94 1013.2
20260507044705 3 107 1.6 3.2 0.00 0.00 0.00 94 1013.2
20260507044205 3 107 1.6 3.2 0.00 0.00 0.00 94 1013.2
20260507043933 3 107 1.6 3.2 0.00 0.00 0.00 94 1013.1
20260507043205 3 107 0.0 3.2 0.00 0.00 0.00 94 1013.1
20260507042926 3 107 0.0 4.8 0.00 0.00 0.00 94 1013.2
20260507042206 3 107 1.6 4.8 0.00 0.00 0.00 94 1013.2
20260507041705 2 107 3.2 3.2 0.00 0.00 0.00 94 1013.1
20260507041205 2 107 1.6 3.2 0.00 0.00 0.00 94 1013.1
20260507040705 2 107 0.0 3.2 0.00 0.00 0.00 93 1013.2
20260507040427 2 107 0.0 3.2 0.00 0.00 0.00 93 1013.2
20260507035704 2 107 1.6 3.2 0.00 0.00 0.00 93 1013.2
20260507035205 2 107 0.0 3.2 0.00 0.00 0.00 93 1013.1
20260507034706 2 107 1.6 3.2 0.00 0.00 0.00 93 1013.3
20260507034206 2 107 0.0 3.2 0.00 0.00 0.00 93 1013.1
20260507033705 2 107 1.6 3.2 0.00 0.00 0.00 93 1013.2
20260507032705 2 107 1.6 3.2 0.00 0.00 0.00 93 1013.2
20260507032204 2 107 0.0 3.2 0.00 0.00 0.00 93 1013.3
20260507031924 2 107 1.6 3.2 0.00 0.00 0.00 93 1013.3
20260507031205 2 107 0.0 0.0 0.00 0.00 0.00 93 1013.3
20260507030932 1 107 0.0 0.0 0.00 0.00 0.00 93 1013.3
20260507030205 1 107 0.0 0.0 0.00 0.00 0.00 93 1013.4
20260507025930 1 107 0.0 0.0 0.00 0.00 0.00 93 1013.4
20260507025201 1 107 0.0 0.0 0.00 0.00 0.00 93 1013.3
20260507024705 1 107 0.0 1.6 0.00 0.00 0.00 93 1013.4
20260507023704 1 107 1.6 1.6 0.00 0.00 0.00 92 1013.5
20260507023206 1 107 1.6 1.6 0.00 0.00 0.00 92 1013.4
20260507022705 1 107 0.0 3.2 0.00 0.00 0.00 92 1013.4
20260507022204 1 107 1.6 3.2 0.00 0.00 0.00 92 1013.3
20260507021705 1 107 0.0 1.6 0.00 0.00 0.00 92 1013.3
20260507021205 1 107 0.0 3.2 0.00 0.00 0.00 92 1013.3
20260507020705 1 107 1.6 3.2 0.00 0.00 0.00 92 1013.4
20260507020204 1 107 0.0 0.0 0.00 0.00 0.00 92 1013.4
20260507015705 1 107 0.0 0.0 0.00 0.00 0.00 92 1013.4
20260507015204 1 107 0.0 1.6 0.00 0.00 0.00 91 1013.4
20260507014704 1 107 0.0 3.2 0.00 0.00 0.00 91 1013.4
20260507014205 1 107 1.6 3.2 0.00 0.00 0.00 91 1013.5
20260507013705 1 107 1.6 3.2 0.00 0.00 0.00 91 1013.4
20260507013205 1 107 3.2 3.2 0.00 0.00 0.00 91 1013.4
20260507012704 1 107 3.2 3.2 0.00 0.00 0.00 91 1013.6
20260507012204 1 107 0.0 3.2 0.00 0.00 0.00 91 1013.6
20260507011705 1 107 0.0 3.2 0.00 0.00 0.00 91 1013.6
20260507011423 1 107 1.6 3.2 0.00 0.00 0.00 91 1013.4
20260507010707 1 107 1.6 3.2 0.00 0.00 0.00 91 1013.5
20260507010205 1 107 3.2 3.2 0.00 0.00 0.00 91 1013.6
20260507005705 1 107 0.0 3.2 0.00 0.00 0.00 91 1013.5
20260507005204 1 107 1.6 3.2 0.00 0.00 0.00 91 1013.6
20260507004705 1 107 1.6 3.2 0.00 0.00 0.00 91 1013.6
20260507004205 1 107 1.6 3.2 0.00 0.00 0.00 91 1013.6
20260507003705 1 107 1.6 3.2 0.00 0.00 0.00 90 1013.6
20260507003205 1 107 0.0 1.6 0.00 0.00 0.00 90 1013.6
20260507002705 1 107 0.0 3.2 0.00 0.00 0.00 91 1013.6
20260507002205 1 107 0.0 3.2 0.00 0.00 0.00 91 1013.6
20260507001706 1 107 1.6 3.2 0.00 0.00 0.00 90 1013.6
20260507001205 1 107 1.6 3.2 0.00 0.00 0.00 90 1013.6
20260507000704 1 107 1.6 3.2 0.00 0.00 0.00 90 1013.7
20260507000205 1 107 1.6 3.2 0.00 0.00 0.00 90 1013.7
20260506235705 1 107 3.2 3.2 0.00 0.00 0.00 90 1013.8
20260506235205 1 107 0.0 1.6 0.00 0.00 0.00 90 1013.8
20260506234705 2 107 0.0 1.6 0.00 0.00 0.00 90 1013.9
20260506234204 2 107 0.0 1.6 0.00 0.00 0.00 90 1013.9
20260506233923 2 107 0.0 1.6 0.00 0.00 0.00 90 1013.9
20260506233205 2 107 0.0 1.6 0.00 0.00 0.00 89 1013.9
20260506232707 2 107 0.0 0.0 0.00 0.00 0.00 89 1013.9
20260506232210 2 107 0.0 0.0 0.00 0.00 0.00 89 1013.9
20260506231928 2 107 0.0 1.6 0.00 0.00 0.00 89 1013.9
20260506231434 2 107 0.0 1.6 0.00 0.00 0.00 89 1013.9
20260506230705 2 107 0.0 1.6 0.00 0.00 0.00 89 1013.9
20260506230206 2 107 0.0 0.0 0.00 0.00 0.00 89 1013.9
20260506225704 2 107 0.0 0.0 0.00 0.00 0.00 88 1014.0
20260506225433 2 107 0.0 0.0 0.00 0.00 0.00 88 1013.9
20260506224919 2 107 0.0 0.0 0.00 0.00 0.00 88 1013.9
20260506224202 2 107 0.0 0.0 0.00 0.00 0.00 88 1013.9
20260506223700 2 107 0.0 0.0 0.00 0.00 0.00 88 1013.9
20260506223421 3 107 0.0 1.6 0.00 0.00 0.00 88 1013.9
20260506222658 3 107 0.0 3.2 0.00 0.00 0.00 87 1013.8
20260506222159 3 107 1.6 3.2 0.00 0.00 0.00 87 1013.8
20260506221657 3 107 3.2 3.2 0.00 0.00 0.00 87 1013.8
20260506221155 3 107 1.6 3.2 0.00 0.00 0.00 87 1013.7
20260506220658 3 107 0.0 3.2 0.00 0.00 0.00 86 1013.7
20260506220422 3 107 0.0 0.0 0.00 0.00 0.00 86 1013.7
20260506215656 3 107 0.0 0.0 0.00 0.00 0.00 85 1013.8
20260506215156 3 107 0.0 0.0 0.00 0.00 0.00 85 1013.7
20260506214914 3 107 0.0 1.6 0.00 0.00 0.00 84 1013.8
20260506214157 3 107 1.6 3.2 0.00 0.00 0.00 84 1013.7
20260506213656 3 107 1.6 3.2 0.00 0.00 0.00 83 1013.6
20260506213414 4 107 1.6 3.2 0.00 0.00 0.00 83 1013.7
20260506212652 4 107 1.6 4.8 0.00 0.00 0.00 82 1013.7
20260506212151 4 107 1.6 4.8 0.00 0.00 0.00 82 1013.7
20260506211648 5 107 3.2 4.8 0.00 0.00 0.00 82 1013.8
20260506211145 5 107 3.2 4.8 0.00 0.00 0.00 82 1013.7
20260506210907 5 107 1.6 4.8 0.00 0.00 0.00 82 1013.8
20260506210144 5 107 1.6 4.8 0.00 0.00 0.00 81 1013.9
20260506205913 5 107 3.2 4.8 0.00 0.00 0.00 81 1013.9
20260506205142 5 107 1.6 4.8 0.00 0.00 0.00 81 1013.8
20260506204642 5 107 3.2 6.4 0.00 0.00 0.00 80 1013.8
20260506204143 6 107 4.8 6.4 0.00 0.00 0.00 80 1013.8
20260506203641 6 107 3.2 8.0 0.00 0.00 0.00 79 1013.7
20260506203138 6 107 3.2 8.0 0.00 0.00 0.00 79 1013.8
20260506202638 6 107 3.2 8.0 0.00 0.00 0.00 79 1013.8
20260506202138 6 109 4.8 16.1 0.00 0.00 0.00 79 1013.6
20260506201638 6 110 4.8 16.1 0.00 0.00 0.00 79 1013.6
20260506201136 6 117 8.0 11.3 0.00 0.00 0.00 79 1013.4
20260506200637 6 117 6.4 14.5 0.00 0.00 0.00 78 1013.3
20260506200135 7 111 8.0 14.5 0.00 0.00 0.00 78 1013.4
20260506195634 7 123 8.0 11.3 0.00 0.00 0.00 78 1013.4
20260506195134 7 123 8.0 16.1 0.00 0.00 0.00 77 1013.4
20260506194634 7 133 8.0 16.1 0.00 0.00 0.00 77 1013.3
20260506194133 7 123 9.7 16.1 0.00 0.00 0.00 77 1013.3
20260506193858 7 86 6.4 16.1 0.00 0.00 0.00 77 1013.3
20260506193135 7 87 9.7 19.3 0.00 0.00 0.00 76 1013.3
20260506192634 7 104 6.4 19.3 0.00 0.00 0.00 75 1013.2
20260506192134 8 96 8.0 19.3 0.00 0.00 0.00 75 1013.2
20260506191634 8 65 11.3 19.3 0.00 0.00 0.00 75 1013.1
20260506191135 8 100 8.0 16.1 0.00 0.00 0.00 75 1012.9
20260506190633 8 113 8.0 17.7 0.00 0.00 0.00 74 1012.9
20260506190134 8 92 11.3 17.7 0.00 0.00 0.00 74 1013.0
20260506185634 8 76 9.7 17.7 0.00 0.00 0.00 74 1012.9
20260506185135 8 113 9.7 17.7 0.00 0.00 0.00 74 1013.0
20260506184633 8 116 11.3 16.1 0.00 0.00 0.00 74 1013.0
20260506184133 8 83 8.0 16.1 0.00 0.00 0.00 73 1013.0
20260506183634 8 133 9.7 16.1 0.00 0.00 0.00 72 1013.0
20260506183134 8 90 9.7 14.5 0.00 0.00 0.00 71 1013.0
20260506182634 9 109 4.8 14.5 0.00 0.00 0.00 71 1012.9
20260506182133 9 83 6.4 11.3 0.00 0.00 0.00 70 1012.8
20260506181634 9 120 4.8 8.0 0.00 0.00 0.00 71 1012.9
20260506181134 9 121 6.4 8.0 0.00 0.00 0.00 70 1012.8
20260506180634 9 118 4.8 8.0 0.00 0.00 0.00 71 1012.8
20260506180135 9 120 4.8 8.0 0.00 0.00 0.00 70 1012.8
20260506175634 9 120 3.2 9.7 0.00 0.00 0.00 69 1012.9
20260506175134 9 120 6.4 9.7 0.00 0.00 0.00 70 1012.9
20260506174634 9 121 6.4 9.7 0.00 0.00 0.00 70 1012.8
20260506174134 9 107 3.2 11.3 0.00 0.00 0.00 70 1012.7
20260506173634 9 99 6.4 11.3 0.00 0.00 0.00 69 1012.7
20260506173135 10 93 3.2 6.4 0.00 0.00 0.00 71 1012.7
20260506172634 9 89 3.2 11.3 0.00 0.00 0.00 70 1012.7
20260506172354 9 86 4.8 11.3 0.00 0.00 0.00 69 1012.7
20260506171857 9 89 6.4 9.7 0.00 0.00 0.00 71 1012.7